Powrót do katalogu

COSMOS 985 DEB

AktywnyPO
NORAD 23836·DEBRIS·🇷🇺 Russia

Wystrzelony Jan 17, 1978 z Plesetsk Cosmodrome

Loading…

Następne Przeloty (najbliższe 24 godziny)

TLE

ŚwieżeSource: Space-Track

Epoka: Sep 14, 2026, 09:18 UTC

1 23836U 78007D   26257.38780813  .00000934  00000-0  56998-3 0  9990
2 23836  82.9300  46.8668 0038456  24.6169   4.1620 14.04701084653756

Śledź COSMOS 985 DEB w czasie rzeczywistym z AllMySat

Download on the App Store